Temperature
16 16 16 16 16 15 15 15 15 15 15 15 15 15 15 15 15 15 15 15 15 15 14 14 14 14 14 14 14 14 14 14 14 13 13 13 13 13 13 13 12 12 12
16 16 16 16 16 15 15 15 15 15 15 15 15 15 15 15 15 15 15 15 15 15 14 14 14 14 14 14 14 14 14 14 14 13 13 13 13 12 12 12 12 12 12
16 16 16 16 16 16 15 15 15 15 15 15 15 15 15 15 15 15 15 15 15 14 14 14 14 14 14 14 14 14 14 14 13 13 13 13 13 12 12 12 12 12 12
16 16 16 16 16 16 15 15 15 15 15 15 15 15 15 15 15 15 15 15 15 14 14 14 14 14 14 14 14 14 13 13 13 13 13 13 12 12 12 12 12 12 11
16 16 16 16 16 16 15 15 15 15 15 15 15 15 15 15 15 15 15 14 14 14 14 14 14 14 14 14 14 13 13 13 13 13 13 12 12 12 12 12 12 11 11
16 16 16 16 16 16 15 15 15 15 15 15 15 15 15 15 15 15 14 14 14 14 14 14 14 14 14 13 13 13 13 13 13 13 12 12 12 12 11 11 11 11 11
16 16 16 16 16 16 15 15 15 15 15 15 15 15 15 15 14 14 14 14 14 14 14 14 14 13 13 13 13 13 13 13 12 12 12 12 12 12 11 11 11 11 11
16 16 16 16 16 15 15 15 15 15 15 15 15 15 15 15 14 14 14 14 14 14 14 14 14 13 13 13 13 13 12 12 12 12 12 12 11 11 11 11 11 10 10
16 16 16 15 15 15 15 15 15 15 15 15 15 15 15 14 14 14 14 14 14 14 14 14 13 13 13 13 13 13 12 12 12 12 11 11 11 11 11 11 10 10 10
16 16 16 15 15 15 15 15 15 15 15 15 15 14 14 14 14 14 14 14 14 14 14 13 13 13 13 13 12 12 12 12 12 11 11 11 11 11 10 10 10 10 10
16 16 16 16 15 15 15 15 15 15 15 14 14 14 14 14 14 14 14 14 14 14 14 13 13 13 13 12 12 12 12 11 11 11 11 11 10 10 10 10 9 9 9
16 16 16 16 15 15 15 15 15 14 14 14 14 14 14 14 14 14 13 13 13 13 13 13 13 13 12 12 12 12 11 11 11 11 11 10 10 10 9 9 9 9 8
16 16 16 16 15 15 15 15 15 14 14 14 14 14 14 14 14 13 13 13 13 13 13 13 12 12 12 12 11 11 11 11 11 11 10 10 10 9 9 9 8 8 8
16 16 16 16 15 15 15 15 14 14 14 14 14 14 14 13 13 13 13 13 13 13 13 12 12 12 12 11 11 11 11 10 10 10 10 9 9 9 9 8 8 8 7
16 16 16 16 15 15 15 14 14 14 14 14 14 14 14 14 14 13 13 13 13 13 12 12 12 11 11 11 11 11 10 10 10 10 9 9 9 8 8 8 8 7 7
16 16 16 16 15 15 15 14 14 14 13 13 13 13 13 13 13 13 13 13 12 12 12 12 12 11 11 11 11 10 10 10 9 9 9 9 8 8 8 7 7 7 6
16 16 16 15 15 15 15 14 14 14 13 13 13 13 13 13 13 12 12 12 12 12 12 12 11 11 11 11 10 10 10 9 9 9 8 8 8 8 7 7 7 6 6
16 16 15 15 15 15 14 14 14 13 13 13 13 12 12 12 12 12 12 12 12 11 11 11 11 11 11 10 10 10 9 9 9 8 8 8 7 7 7 6 6 5 5
15 15 15 15 15 14 14 14 13 13 13 13 13 12 12 12 12 12 11 11 11 11 11 11 11 10 10 10 10 9 9 9 8 8 8 7 7 6 6 6 5 5 4
15 15 15 15 14 14 13 13 13 13 13 13 12 12 12 12 12 11 11 11 11 11 11 11 10 10 10 10 9 9 8 8 8 8 7 7 6 6 6 5 5 4 4
15 15 14 14 14 14 13 13 13 13 12 12 12 12 12 11 11 11 11 11 11 10 10 10 10 10 9 9 9 8 8 8 8 7 7 7 6 6 5 5 4 4 3
14 14 14 14 13 13 13 13 12 12 12 12 12 11 11 11 11 11 11 10 10 10 10 9 9 9 9 9 8 8 8 7 7 7 7 6 6 5 5 4 4 3 3
14 14 14 13 13 13 12 12 12 12 11 11 11 11 11 10 10 10 10 10 10 9 9 9 9 8 8 8 8 7 7 7 7 6 6 6 5 5 4 4 4 3 3
14 13 13 13 13 12 12 12 12 11 11 11 10 10 10 10 10 10 9 9 9 9 9 8 8 8 8 8 7 7 7 7 6 6 5 5 5 4 4 4 3 3 2
13 13 13 13 12 12 12 11 11 11 11 10 10 10 10 10 9 9 9 9 9 8 8 8 8 8 7 7 7 7 6 6 6 5 5 5 4 4 3 3 3 2 2
13 12 12 12 12 12 11 11 11 11 10 10 10 10 10 9 9 9 9 8 8 8 8 7 7 7 7 6 6 6 6 5 5 5 4 4 4 3 3 2 2 1 1
Wind_Speed
6 5 5 4 4 4 4 4 3 3 3 4 4 4 4 4 4 4 3 3 4 3 3 4 3 3 3 3 3 3 3 3 4 1 1 2 4 4 6 8 9 9 10
7 6 5 5 5 5 4 4 4 4 3 4 4 4 4 4 4 4 4 3 3 3 3 4 3 3 4 3 3 3 2 2 4 3 2 3 3 3 3 4 7 8 9
6 6 5 5 6 6 5 5 5 4 4 4 4 5 4 4 4 4 4 3 3 3 3 4 3 4 3 3 3 3 3 3 3 3 2 2 2 2 3 3 5 6 7
6 6 6 6 6 6 5 5 5 5 5 4 4 4 4 4 4 4 4 4 3 3 2 3 3 4 4 4 4 3 4 5 4 4 3 2 2 2 2 2 3 4 4
7 7 6 6 5 5 6 5 5 5 5 4 4 4 3 3 4 5 5 5 4 3 3 2 3 4 5 5 4 4 5 4 4 3 2 2 2 1 1 1 1 2 3
7 7 6 6 6 6 6 6 6 5 4 4 4 4 4 3 5 7 6 5 4 4 3 2 2 3 4 5 6 7 6 5 4 3 2 1 1 1 1 1 1 2 2
7 6 6 6 7 7 7 7 6 6 5 5 4 5 4 4 6 8 8 6 4 4 3 3 3 3 4 4 5 6 5 5 6 5 3 2 1 2 1 1 1 1 0
7 7 6 7 7 7 7 7 6 5 5 5 5 5 5 4 7 8 8 6 4 3 3 3 4 3 3 5 6 5 4 3 3 3 3 2 1 2 2 2 2 2 1
7 7 7 8 8 8 8 7 5 5 5 4 4 5 5 4 7 9 9 5 4 3 2 3 4 4 5 8 6 5 3 3 5 5 5 4 4 4 5 4 2 2 1
8 7 7 8 8 8 8 7 5 5 5 5 4 4 5 5 6 9 9 5 4 3 2 2 4 5 6 8 6 5 4 1 2 4 5 6 6 6 5 3 2 2 1
7 7 7 7 8 8 7 6 6 6 6 5 4 3 3 4 6 8 9 5 5 4 3 2 2 5 6 7 7 5 5 4 3 4 3 4 4 5 5 4 3 2 2
7 8 7 7 7 7 7 6 6 7 7 5 4 3 1 2 4 6 9 8 7 6 4 3 3 7 7 8 6 6 7 7 4 4 3 3 2 2 3 4 4 4 3
8 8 7 7 6 7 8 7 6 5 5 5 5 4 2 2 3 6 8 9 9 5 4 6 7 8 7 5 6 7 6 4 4 3 2 1 1 1 3 4 5 6 7
9 8 7 7 7 6 6 6 6 6 6 6 5 5 4 3 3 3 4 5 7 6 5 6 8 7 6 5 5 4 3 3 3 3 2 1 1 2 2 2 2 2 2
8 7 7 7 7 7 6 5 6 6 7 8 7 7 6 6 7 9 8 6 6 7 7 4 3 3 3 2 2 2 2 2 2 2 2 1 1 2 1 1 1 1 1
8 7 6 6 6 6 6 3 2 3 6 8 8 8 5 6 9 10 10 10 11 13 8 5 4 3 4 3 3 2 2 2 2 2 2 2 1 1 1 1 1 1 1
9 8 7 7 6 6 6 6 4 2 4 5 7 8 8 9 10 10 10 10 11 12 6 5 4 5 4 4 3 3 2 2 2 2 2 1 1 1 1 1 1 1 1
8 8 8 7 6 6 6 6 5 5 4 2 3 6 8 9 10 11 12 10 6 5 4 4 5 4 4 4 4 3 2 2 2 2 2 1 1 1 1 0 0 0 1
7 6 7 6 6 6 6 5 5 5 5 4 3 3 6 8 8 9 10 5 6 5 4 4 4 4 4 4 4 3 3 3 3 2 2 2 2 2 1 1 1 0 0
6 8 8 7 6 6 6 6 6 5 5 5 4 4 4 4 4 4 4 3 4 4 4 4 4 4 4 4 4 4 3 3 3 2 2 2 2 2 2 2 1 1 1
6 7 9 8 7 7 7 6 6 6 5 5 4 5 8 5 5 5 5 4 4 4 4 4 4 4 4 4 4 4 4 3 3 3 2 2 2 2 1 1 1 1 1
6 6 7 7 6 6 6 6 6 6 6 5 4 4 8 4 4 4 4 3 3 4 5 5 4 4 4 5 5 4 4 4 3 3 3 2 2 2 2 1 1 1 1
7 7 7 6 6 7 7 5 5 5 5 5 5 5 5 4 4 4 4 3 3 4 5 5 5 4 5 6 6 6 5 4 4 4 4 3 2 2 2 2 2 2 1
7 8 7 7 6 6 6 6 6 6 5 5 5 5 5 5 4 4 4 4 4 5 5 6 6 6 7 6 5 5 5 5 5 5 6 4 3 2 2 1 1 1 1
7 7 7 7 7 7 6 6 6 6 6 5 5 5 5 5 5 4 4 5 5 5 5 6 6 7 7 7 6 5 5 6 6 5 5 4 3 2 2 1 1 0 0
7 7 7 6 7 7 7 7 6 6 6 6 5 5 5 5 5 5 5 5 5 5 5 6 7 7 8 7 6 6 6 6 6 6 5 4 3 2 2 1 1 1 0
Wind_Direction
173 173 165 169 167 157 158 171 168 158 143 139 140 134 129 127 123 120 117 115 105 88 87 102 96 97 94 84 89 94 95 112 126 10 351 359 21 27 25 36 45 46 46
175 169 169 167 163 163 169 171 163 157 146 141 137 132 133 130 128 130 129 122 117 112 110 109 106 104 92 85 90 91 94 102 126 116 22 10 16 15 19 30 36 44 45
168 166 168 169 168 172 174 165 156 150 141 133 132 138 141 139 135 135 133 130 123 121 130 131 130 119 109 100 97 96 90 90 92 111 63 15 6 16 18 26 39 35 41
167 169 177 180 180 176 169 161 155 150 146 143 144 150 149 142 137 138 132 126 118 111 120 130 134 138 140 131 117 111 106 95 89 91 76 36 15 358 35 28 23 27 32
167 174 182 178 172 162 161 161 152 150 155 152 147 145 145 145 154 151 145 138 132 118 103 110 126 134 136 137 130 131 122 110 101 95 80 49 21 13 3 352 23 14 31
172 178 171 164 163 162 161 157 149 149 148 146 152 150 148 160 161 158 149 139 138 134 129 114 110 114 119 121 122 126 130 129 132 120 107 105 299 279 326 51 43 38 4
170 170 166 162 161 165 160 152 155 157 152 152 156 151 157 165 158 152 146 136 135 139 141 132 119 115 112 112 107 103 99 108 130 138 137 177 203 226 153 91 90 100 115
168 168 167 161 161 157 154 160 161 154 156 160 160 160 158 168 158 149 143 132 126 133 145 145 135 128 129 129 112 97 81 73 103 114 139 167 170 155 155 157 155 126 40
171 171 170 166 163 162 164 167 161 152 155 159 157 158 160 171 164 156 142 129 125 128 131 135 145 141 141 134 122 115 92 61 73 89 92 80 71 84 113 100 85 78 17
178 173 167 166 167 169 170 164 155 154 158 153 150 160 167 174 169 161 148 139 138 133 109 113 135 144 140 137 135 135 132 133 97 76 65 59 61 69 87 99 131 122 111
169 160 161 164 166 164 159 156 150 150 146 147 150 153 165 176 170 164 158 155 157 148 143 141 140 141 139 139 138 145 155 141 115 98 75 55 51 52 50 54 73 119 134
159 159 163 162 163 158 151 152 150 149 148 152 149 147 166 178 170 171 167 165 156 150 160 163 146 138 134 133 133 136 132 119 106 94 79 55 40 27 31 46 59 70 81
157 162 164 160 157 153 155 155 150 154 159 164 162 170 184 177 173 170 169 166 161 156 155 148 140 134 127 120 121 124 120 116 115 108 108 78 7 29 51 53 47 56 54
162 163 158 156 156 154 157 161 164 169 170 173 175 180 184 179 176 168 161 155 154 148 134 124 121 114 108 104 99 100 105 132 134 143 142 114 59 59 49 46 41 27 37
163 164 161 161 160 160 162 170 177 186 185 182 189 183 180 194 201 181 169 169 167 157 136 114 108 110 112 101 96 98 104 113 117 116 119 104 78 68 37 30 47 52 56
164 168 168 164 163 161 157 141 137 171 183 184 178 172 185 185 172 169 168 165 158 148 133 138 148 155 165 167 160 148 135 144 148 131 125 122 112 97 56 42 56 69 43
169 171 169 167 166 166 164 162 155 104 126 162 171 170 167 159 157 158 157 151 150 147 140 154 163 172 176 176 173 167 171 171 148 140 140 141 136 125 101 73 55 41 353
164 167 166 169 169 168 169 168 163 158 151 130 145 160 159 154 154 154 144 128 133 148 158 166 176 177 175 174 174 170 161 144 138 143 145 148 146 144 143 170 196 209 288
162 166 165 162 160 159 156 154 154 154 152 144 123 127 142 138 134 140 141 141 159 171 178 180 178 173 171 169 167 162 160 158 156 155 160 165 167 161 182 218 234 302 356
161 160 156 153 151 151 152 152 153 154 152 153 157 155 140 123 132 147 158 159 164 171 173 176 176 170 167 165 162 160 162 166 169 171 177 181 179 178 191 202 212 229 265
156 158 152 149 156 158 159 160 161 162 164 165 168 165 159 156 163 166 169 172 175 177 172 167 167 168 165 160 160 163 168 178 181 179 181 184 181 183 192 196 217 230 253
154 157 159 158 158 158 158 159 160 162 165 163 154 154 162 151 155 160 163 166 168 164 157 155 160 164 166 167 167 171 176 184 185 181 181 183 181 182 182 191 214 236 251
153 154 155 156 157 157 155 157 158 161 165 165 160 154 157 159 157 158 160 158 149 145 144 146 150 151 152 157 162 167 179 188 188 178 179 181 183 187 191 202 211 221 240
156 158 158 157 157 160 162 163 163 165 165 163 160 159 159 159 158 158 156 148 143 141 142 142 143 148 148 146 149 156 163 168 167 168 168 172 177 184 189 201 217 232 240
159 160 160 162 164 165 166 165 168 168 167 166 163 160 157 153 152 151 147 143 140 140 140 139 140 146 148 148 148 149 152 155 155 152 150 147 154 158 158 160 174 171 10
160 160 160 161 164 166 169 170 170 170 169 167 164 162 161 160 158 155 150 148 145 143 141 140 141 144 144 145 145 144 142 142 144 144 138 134 138 144 143 147 140 125 123
Height
1532 1535 1537 1539 1542 1544 1545 1547 1549 1550 1551 1552 1554 1555 1555 1556 1557 1557 1558 1558 1558 1558 1558 1559 1559 1559 1560 1560 1561 1561 1561 1561 1561 1562 1562 1561 1561 1560 1560 1559 1558 1557 1556
1531 1533 1536 1538 1541 1542 1544 1546 1548 1550 1551 1552 1553 1554 1555 1556 1557 1557 1558 1558 1558 1558 1559 1559 1559 1560 1560 1561 1561 1561 1561 1562 1562 1561 1562 1562 1561 1561 1560 1559 1559 1558 1557
1529 1531 1534 1537 1539 1541 1543 1545 1547 1549 1550 1552 1553 1554 1555 1556 1557 1557 1558 1558 1559 1559 1559 1559 1560 1560 1561 1561 1561 1561 1562 1562 1562 1562 1562 1562 1562 1561 1561 1560 1559 1558 1557
1527 1530 1532 1535 1537 1540 1542 1544 1546 1548 1549 1551 1552 1553 1555 1556 1556 1557 1558 1558 1559 1559 1559 1560 1560 1561 1561 1561 1562 1562 1562 1562 1562 1562 1562 1562 1562 1561 1561 1560 1559 1559 1558
1524 1527 1530 1533 1535 1538 1540 1542 1544 1546 1548 1550 1551 1553 1554 1555 1556 1557 1558 1558 1559 1559 1560 1560 1561 1561 1561 1562 1562 1562 1562 1562 1562 1562 1562 1562 1561 1561 1560 1560 1559 1559 1558
1522 1525 1528 1530 1533 1536 1538 1540 1543 1545 1547 1549 1550 1552 1553 1554 1556 1557 1557 1558 1558 1559 1560 1560 1561 1561 1562 1562 1562 1562 1563 1562 1562 1562 1562 1561 1561 1561 1560 1560 1559 1558 1557
1520 1523 1525 1528 1531 1533 1536 1538 1541 1543 1545 1547 1549 1551 1552 1553 1555 1556 1557 1557 1558 1559 1560 1560 1561 1561 1562 1562 1562 1562 1562 1562 1563 1563 1562 1561 1561 1561 1560 1559 1558 1557 1556
1518 1520 1523 1526 1528 1531 1534 1536 1539 1542 1544 1546 1548 1549 1551 1552 1554 1555 1556 1557 1557 1558 1559 1560 1560 1561 1561 1562 1562 1562 1562 1562 1562 1562 1562 1561 1561 1560 1559 1559 1558 1557 1556
1515 1518 1521 1523 1526 1529 1532 1535 1537 1540 1542 1544 1546 1548 1550 1551 1553 1554 1555 1555 1556 1557 1558 1559 1560 1560 1561 1561 1561 1561 1561 1561 1561 1561 1561 1560 1560 1559 1559 1558 1557 1556 1555
1512 1515 1519 1521 1524 1527 1530 1533 1535 1538 1540 1542 1545 1546 1548 1550 1551 1552 1553 1554 1555 1556 1557 1558 1559 1559 1560 1560 1560 1560 1560 1561 1561 1560 1560 1559 1559 1558 1557 1557 1556 1555 1553
1511 1514 1516 1519 1522 1525 1528 1531 1533 1536 1538 1540 1542 1544 1546 1548 1549 1550 1552 1553 1554 1555 1556 1557 1558 1558 1558 1559 1559 1559 1559 1560 1559 1559 1559 1558 1558 1557 1556 1555 1554 1553 1552
1509 1512 1514 1517 1520 1523 1526 1528 1531 1533 1536 1538 1540 1542 1544 1545 1547 1548 1550 1551 1552 1553 1554 1555 1556 1557 1557 1557 1558 1558 1558 1558 1558 1558 1557 1557 1556 1556 1555 1554 1553 1552 1551
1507 1509 1512 1515 1518 1520 1523 1525 1528 1530 1532 1534 1537 1539 1541 1542 1544 1546 1547 1549 1550 1551 1552 1553 1554 1555 1555 1556 1556 1556 1557 1557 1556 1556 1556 1555 1555 1555 1554 1553 1552 1551 1549
1504 1507 1509 1512 1515 1517 1520 1523 1525 1527 1529 1531 1533 1535 1537 1539 1541 1543 1545 1546 1548 1549 1550 1551 1552 1553 1553 1554 1554 1554 1555 1555 1554 1554 1554 1554 1553 1553 1552 1551 1550 1549 1548
1501 1504 1506 1509 1512 1514 1517 1520 1522 1524 1526 1528 1530 1532 1534 1536 1538 1540 1542 1543 1545 1546 1547 1548 1549 1550 1551 1551 1552 1552 1552 1553 1552 1552 1552 1552 1552 1551 1550 1549 1548 1547 1545
1498 1500 1503 1506 1508 1511 1513 1516 1519 1521 1523 1525 1527 1529 1531 1533 1535 1537 1539 1541 1542 1543 1544 1545 1546 1547 1548 1549 1549 1550 1550 1550 1550 1550 1550 1550 1549 1548 1548 1547 1545 1544 1542
1494 1497 1499 1502 1505 1507 1510 1512 1514 1517 1519 1522 1523 1525 1528 1530 1532 1534 1536 1537 1539 1540 1541 1542 1543 1544 1545 1546 1547 1547 1547 1548 1548 1548 1548 1547 1546 1546 1545 1544 1542 1541 1540
1491 1493 1496 1498 1501 1504 1506 1508 1511 1513 1515 1517 1520 1522 1524 1527 1529 1531 1533 1534 1535 1536 1537 1539 1540 1541 1542 1543 1543 1544 1544 1545 1545 1545 1544 1544 1543 1542 1541 1540 1539 1538 1537
1487 1490 1493 1495 1498 1500 1503 1505 1508 1510 1512 1514 1516 1519 1521 1523 1525 1527 1529 1530 1531 1532 1534 1535 1536 1537 1538 1539 1540 1541 1541 1542 1542 1541 1541 1541 1540 1539 1538 1537 1536 1535 1534
1484 1487 1489 1492 1494 1497 1499 1502 1504 1506 1509 1511 1513 1515 1517 1519 1521 1523 1524 1526 1527 1529 1530 1531 1533 1534 1535 1536 1536 1537 1538 1538 1538 1538 1537 1537 1536 1536 1535 1534 1533 1532 1531
1481 1484 1486 1489 1491 1494 1496 1498 1501 1503 1505 1507 1510 1512 1514 1516 1518 1519 1521 1522 1524 1525 1526 1528 1529 1530 1531 1532 1532 1533 1534 1534 1534 1534 1533 1533 1533 1532 1532 1531 1530 1529 1528
1478 1480 1483 1485 1488 1491 1493 1496 1498 1500 1502 1504 1506 1509 1511 1513 1515 1516 1517 1519 1520 1522 1523 1524 1525 1526 1527 1528 1529 1529 1530 1530 1530 1530 1529 1529 1529 1528 1528 1527 1527 1526 1525
1475 1477 1480 1483 1485 1488 1491 1493 1495 1497 1499 1501 1504 1505 1507 1509 1511 1513 1515 1516 1517 1519 1520 1521 1521 1522 1523 1524 1525 1525 1526 1526 1526 1526 1526 1525 1525 1525 1524 1524 1523 1522 1521
1472 1474 1477 1480 1482 1485 1487 1490 1492 1494 1497 1499 1501 1503 1504 1506 1508 1510 1511 1513 1514 1515 1516 1517 1518 1519 1520 1521 1521 1522 1522 1522 1522 1522 1522 1522 1522 1521 1521 1520 1520 1519 1518
1469 1472 1474 1477 1479 1482 1484 1487 1489 1491 1493 1495 1497 1499 1501 1503 1505 1506 1508 1510 1511 1512 1513 1514 1515 1516 1517 1517 1518 1518 1518 1519 1519 1519 1519 1518 1518 1518 1518 1517 1516 1516 1515
1466 1469 1471 1474 1476 1479 1481 1484 1486 1488 1490 1492 1494 1496 1498 1500 1502 1503 1505 1506 1508 1509 1510 1511 1512 1513 1514 1514 1515 1515 1515 1516 1516 1515 1515 1515 1515 1515 1514 1514 1513 1513 1512